This demonstration page uses our WeatherBlox Daily Observations layout. Learn more.

Left ArrowRight Arrow

44.8408, -93.29828

Hourly Observations for July 18, 2019

Temp ( °F °C ) Dew Point ( °F °C ) Humidity (%) Winds ( mph kmh ) Pressure ( in mb ) Visibility ( mi km ) Precip ( " mm )
12:53 am 00:53 Partly Cloudy 76 24.4 70 21.1 82 82 Calm 29.70 1006 10 16 0.00 0.00
1:53 am 01:53 Cloudy 76 24.4 71 21.7 85 85 SE 7 11 29.73 1007 10 16 0.00 0.00
2:53 am 02:53 Mostly Cloudy 77 25 69 20.6 77 77 S 9 15 29.68 1005 10 16 0.00 0.00
3:53 am 03:53 Mostly Cloudy 76 24.4 67 19.4 74 74 S 6 9 29.68 1005 10 16 0.00 0.00
4:29 am 04:29 Mostly Cloudy with Nearby Thunderstorms 76 24.4 67 19.4 74 74 SSW 8 13 29.66 1005 10 16 0.00 0.00
4:42 am 04:42 Cloudy with Thunderstorms 75 23.9 67 19.4 76 76 S 9 15 29.68 1005 10 16 0.00 0.03
4:53 am 04:53 Cloudy with Nearby Thunderstorms 75 23.9 67 19.4 76 76 ESE 6 9 29.66 1004 10 16 0.00 0.03
5:15 am 05:15 Mostly Cloudy 74 23.3 68 20 82 82 SSE 3 6 29.65 1004 10 16 0.00 0.00
5:53 am 05:53 Partly Cloudy 74 23.3 69 20.6 85 85 SSW 5 7 29.67 1005 10 16 0.00 0.00
6:37 am 06:37 Mostly Cloudy 74 23.3 68 20 82 82 SW 7 11 29.69 1005 10 16 0.00 0.00
6:53 am 06:53 Mostly Cloudy 74 23.3 69 20.6 85 85 S 5 7 29.69 1005 10 16 0.00 0.00
7:53 am 07:53 Cloudy 74 23.3 69 20.6 85 85 S 10 17 29.70 1006 10 16 0.00 0.00
8:04 am 08:04 Cloudy 74 23.3 69 20.6 85 85 S 8 13 29.69 1005 10 16 0.00 0.00
8:19 am 08:19 Cloudy 74 23.3 69 20.6 85 85 S 9 15 29.69 1005 10 16 0.00 0.00
8:45 am 08:45 Cloudy 74 23.3 68 20 82 82 S 10 17 29.70 1006 10 16 0.00 0.00
8:53 am 08:53 Cloudy 74 23.3 68 20 82 82 SSE 9 15 29.70 1006 10 16 0.00 0.00
9:53 am 09:53 Mostly Cloudy 78 25.6 69 20.6 74 74 S 6 9 29.69 1005 10 16 0.00 0.00
10:01 am 10:01 Mostly Cloudy 78 25.6 69 20.6 74 74 S 7 11 29.67 1005 10 16 0.00 0.00
10:15 am 10:15 Cloudy 78 25.6 69 20.6 74 74 S 8 13 29.68 1005 10 16 0.00 0.00
10:53 am 10:53 Mostly Cloudy 78 25.6 68 20 71 71 S 14 22 29.69 1006 10 16 0.00 0.00
11:53 am 11:53 Mostly Cloudy 79 26.1 69 20.6 72 72 SSW 9 15 29.70 1006 10 16 0.00 0.00
12:17 pm 12:17 Mostly Cloudy 80 26.7 70 21.1 71 71 S 5 7 29.67 1005 10 16 0.00 0.00
12:53 pm 12:53 Mostly Cloudy 81 27.2 70 21.1 69 69 SSW 9 15 29.68 1005 10 16 0.00 0.00
1:53 pm 13:53 Mostly Cloudy 82 27.8 71 21.7 69 69 WSW 7 11 29.67 1005 10 16 0.00 0.00
2:53 pm 14:53 Mostly Cloudy 83 28.3 72 22.2 70 70 S 3 6 29.65 1004 10 16 0.00 0.00
3:53 pm 15:53 Mostly Cloudy 85 29.4 74 23.3 70 70 Calm 29.65 1004 10 16 0.00 0.00
4:53 pm 16:53 Mostly Cloudy 87 30.6 72 22.2 61 61 VRB 3 6 29.65 1004 10 16 0.00 0.00
5:53 pm 17:53 Mostly Cloudy 87 30.6 72 22.2 61 61 VRB 3 6 29.64 1004 10 16 0.00 0.00
6:53 pm 18:53 Mostly Cloudy 87 30.6 72 22.2 61 61 SE 6 9 29.63 1003 10 16 0.00 0.00
7:53 pm 19:53 Mostly Cloudy 86 30 70 21.1 59 59 SE 5 7 29.63 1003 10 16 0.00 0.00
8:53 pm 20:53 Mostly Cloudy 85 29.4 72 22.2 65 65 ESE 3 6 29.65 1004 10 16 0.00 0.00
9:53 pm 21:53 Mostly Cloudy 83 28.3 74 23.3 74 74 SE 9 15 29.64 1004 10 16 0.00 0.00
10:53 pm 22:53 Partly Cloudy 81 27.2 73 22.8 77 77 SSE 6 9 29.64 1004 10 16 0.00 0.00
11:53 pm 23:53 Partly Cloudy 78 25.6 71 21.7 79 79 SE 6 9 29.64 1004 10 16 0.00 0.00

Powered by AerisWeather